Content
SEND FEEDBACK

Daily
Averages
Monthly
Summary
United States of America

UMATAC, GUAM


Home > North America > United States > Guam
Elevation: 190 feet     Latitude: 13 17N     Longitude: 144 40E

WEATHER
 
SELECT A DAY
Number of Records: 341,524;   Date Range: 1/1/95 - 7/7/14
 
SHARE

PRINT THIS DATA

[ ← Previous Day ]
WEATHER ALMANAC - JANUARY 30, 2013
[ Next Day → ]
[ °C ]   °F
Weather ElementAverageHighLow
Temperature78.2 °F84.2 °F (11:55 am)75.2 °F (9:59 pm)
Dewpoint71 °F73.6 °F (9:55 pm)68 °F (12:10 am)
Humidity79.2 %94 % (9:59 pm)59 % (12:55 pm)
Barometer29.94 in29.98 in (9:55 am)29.90 in (3:37 am)
Wind Speed14.8 mph18.4 mph (8:55 am)
Wind Gust27.6 mph (9:51 pm)
Weather ElementAverage
Visibility9.4 mi
Wind DirectionENE (71.4 °)

Weather ElementTotal
Precipitation0.10 in
Cooling Degree Days14.7 (Base 65)
Growing Degree Days29.7 (Base 50)
Averaged from 50 records on January 30, 2013
WEATHER CONDITIONS BREAKOUT
WIND DIRECTION BREAKOUT
WEATHER BY HOUR - JANUARY 30, 2013
[ °C ]   °F
Local TimeTemperatureDewpointHumidityBarometerVisibilityWind DirectionWind SpeedGust SpeedPrecipitationEventsConditions
12:10 AM77.0 °F68.0 °F74 %29.94 in10.0 miEast (80°)12.7 mphMostly Cloudy
12:20 AM77.0 °F68.0 °F74 %29.94 in10.0 miEast (80°)13.8 mphScattered Clouds
12:55 AM76.6 °F68.5 °F76 %29.93 in10.0 miEast (80°)15.0 mphPartly Cloudy
1:55 AM77.0 °F69.1 °F76 %29.92 in10.0 miEast (80°)15.0 mphPartly Cloudy
2:28 AM77.0 °F69.8 °F78 %29.92 in10.0 miEast (90°)12.7 mphMostly Cloudy
2:34 AM77.0 °F68.0 °F74 %29.91 in10.0 miEast (90°)15.0 mphMostly Cloudy
2:55 AM76.8 °F68.0 °F74 %29.91 in10.0 miEast (80°)13.8 mphPartly Cloudy
3:37 AM77.0 °F69.8 °F78 %29.90 in10.0 miEast (90°)11.5 mphMostly Cloudy
3:45 AM77.0 °F68.0 °F74 %29.90 in10.0 miEast (80°)15.0 mphScattered Clouds
3:55 AM76.5 °F68.2 °F75 %29.90 in10.0 miEast (80°)13.8 mphScattered Clouds
4:55 AM76.5 °F68.5 °F76 %29.91 in10.0 miEast (80°)12.7 mphPartly Cloudy
5:55 AM77.0 °F70.2 °F79 %29.92 in10.0 miEast (90°)11.5 mphMostly Cloudy
5:56 AM77.0 °F69.8 °F78 %29.92 in10.0 miEast (80°)15.0 mphMostly Cloudy
6:04 AM77.0 °F69.8 °F78 %29.92 in10.0 miEast (80°)15.0 mph23.0 mphMostly Cloudy
6:55 AM76.6 °F68.7 °F76 %29.94 in10.0 miEast (80°)12.7 mphPartly Cloudy
7:55 AM78.6 °F69.1 °F72 %29.95 in10.0 miEast (80°)16.1 mphScattered Clouds
8:55 AM80.4 °F69.1 °F68 %29.97 in10.0 miEast (80°)18.4 mph24.2 mphPartly Cloudy
9:55 AM81.9 °F68.7 °F64 %29.98 in10.0 miEast (90°)17.3 mphPartly Cloudy
10:55 AM83.3 °F70.7 °F66 %29.97 in10.0 miEast (80°)17.3 mphPartly Cloudy
11:55 AM84.2 °F71.1 °F65 %29.94 in10.0 miEast (90°)16.1 mphPartly Cloudy
12:55 PM84.0 °F68.4 °F59 %29.93 in10.0 miEast (80°)16.1 mphPartly Cloudy
1:55 PM83.3 °F69.4 °F63 %29.91 in10.0 miEast (100°)15.0 mph23.0 mphPartly Cloudy
2:55 PM82.8 °F70.3 °F66 %29.90 in10.0 miEast (80°)15.0 mphPartly Cloudy
3:55 PM81.9 °F71.1 °F70 %29.90 in10.0 miENE (70°)16.1 mphPartly Cloudy
4:55 PM80.8 °F70.7 °F71 %29.90 in10.0 miENE (70°)15.0 mphPartly Cloudy
5:55 PM78.8 °F70.9 °F77 %29.92 in10.0 miENE (70°)11.5 mphPartly Cloudy
6:09 PM78.8 °F71.6 °F78 %29.93 in10.0 miENE (60°)11.5 mphMostly Cloudy
6:14 PM78.8 °F71.6 °F78 %29.93 in10.0 miENE (70°)13.8 mphScattered Clouds
6:18 PM78.8 °F71.6 °F78 %29.93 in10.0 miENE (60°)12.7 mphMostly Cloudy
6:28 PM78.8 °F71.6 °F78 %29.93 in10.0 miENE (60°)12.7 mphMostly Cloudy
6:55 PM77.7 °F72.5 °F84 %29.94 in10.0 miNE (50°)13.8 mphScattered Clouds
7:55 PM78.4 °F73.0 °F83 %29.96 in10.0 miENE (60°)17.3 mphMostly Cloudy
8:55 PM77.9 °F73.0 °F85 %29.96 in10.0 miNE (50°)17.3 mphMostly Cloudy
9:32 PM77.0 °F73.4 °F89 %29.97 in7.0 miENE (60°)16.1 mphRainRain
9:42 PM77.0 °F73.4 °F89 %29.97 in10.0 miENE (60°)15.0 mphMostly Cloudy
9:51 PM77.0 °F73.4 °F89 %29.97 in3.0 miENE (60°)18.4 mph27.6 mphRainHeavy Rain
9:53 PM77.0 °F73.4 °F89 %29.97 in2.5 miENE (60°)16.1 mph27.6 mphRainRain
9:55 PM75.9 °F73.6 °F92 %29.97 in2.5 miENE (60°)15.0 mph27.6 mph0.10 inRainLight Rain
9:59 PM75.2 °F73.4 °F94 %29.97 in3.0 miENE (60°)16.1 mph27.6 mphRainLight Rain
10:03 PM77.0 °F73.4 °F89 %29.97 in10.0 miENE (60°)16.1 mphOvercast
10:08 PM77.0 °F73.4 °F89 %29.97 in10.0 miNE (50°)16.1 mphOvercast
10:13 PM77.0 °F73.4 °F89 %29.97 in10.0 miENE (60°)15.0 mphMostly Cloudy
10:29 PM77.0 °F73.4 °F89 %29.97 in10.0 miENE (60°)13.8 mphMostly Cloudy
10:55 PM76.5 °F72.5 °F87 %29.96 in10.0 miENE (70°)16.1 mph0.00 inOvercast
11:28 PM77.0 °F73.4 °F89 %29.96 in10.0 miENE (60°)13.8 mphMostly Cloudy
11:31 PM77.0 °F73.4 °F89 %29.96 in10.0 miENE (60°)18.4 mphMostly Cloudy
11:34 PM77.0 °F71.6 °F83 %29.96 in10.0 miENE (60°)13.8 mphMostly Cloudy
11:38 PM77.0 °F73.4 °F89 %29.96 in10.0 miENE (60°)16.1 mphMostly Cloudy
11:53 PM77.0 °F73.4 °F89 %29.96 in10.0 miENE (70°)12.7 mphMostly Cloudy
11:55 PM76.8 °F73.2 °F89 %29.95 in10.0 miENE (60°)13.8 mphMostly Cloudy
Hourly data recorded from PGUA, located miles away from Umatac, Guam







STORIES FROM OUR PARTNERS